Zurück zum Katalog

PHISAT 2

AktivWissenschaftSSO
NORAD 60470·PAYLOAD·🇬🇧 United Kingdom

Gestartet Aug 16, 2024 von Vandenberg Space Force Base

Loading…

Nächste Überflüge (nächste 24 Stunden)

TLE

AktuellSource: Space-Track

Epoche: Sep 13, 2026, 23:09 UTC

1 60470U 24149C   26256.96516238  .00005834  00000-0  19063-3 0  9990
2 60470  97.3697 335.7258 0000318  19.4357 340.6897 15.32121848115586

Verfolge PHISAT 2 in Echtzeit mit AllMySat

Download on the App Store